owner,sensor,date,latitude,longitude,vertical_datum,sea_water_practical_salinity,qcFlag 
DISL,ioos:station:DISL:BSCA:1,2011-11-01T00:00:00Z,30.3288,-87.8293,1.669,23.02,1111122 
DISL,ioos:station:DISL:BSCA:1,2011-11-01T00:30:00Z,30.3288,-87.8293,1.695,22.99,1111122 
DISL,ioos:station:DISL:BSCA:1,2011-11-01T01:00:00Z,30.3288,-87.8293,1.724,23.01,1111122 
DISL,ioos:station:DISL:BSCA:1,2011-11-01T01:30:00Z,30.3288,-87.8293,1.742,23.04,1111122 
DISL,ioos:station:DISL:BSCA:1,2011-11-01T02:00:00Z,30.3288,-87.8293,1.784,23.1,1111122 
DISL,ioos:station:DISL:BSCA:1,2011-11-01T02:30:00Z,30.3288,-87.8293,1.815,23.13,1111122 
DISL,ioos:station:DISL:BSCA:1,2011-11-01T03:00:00Z,30.3288,-87.8293,1.84,23.25,1111122 
DISL,ioos:station:DISL:BSCA:1,2011-11-01T03:30:00Z,30.3288,-87.8293,1.873,23.16,1111122 
DISL,ioos:station:DISL:BSCA:1,2011-11-01T04:00:00Z,30.3288,-87.8293,1.905,23.21,1111122 
DISL,ioos:station:DISL:BSCA:1,2011-11-01T04:30:00Z,30.3288,-87.8293,1.933,23.2,1111122 
DISL,ioos:station:DISL:BSCA:1,2011-11-01T05:00:00Z,30.3288,-87.8293,1.966,23.18,1111122 
DISL,ioos:station:DISL:BSCA:1,2011-11-01T05:30:00Z,30.3288,-87.8293,1.985,23.13,1111122 
DISL,ioos:station:DISL:BSCA:1,2011-11-01T06:00:00Z,30.3288,-87.8293,1.996,23.13,1111122 
DISL,ioos:station:DISL:BSCA:1,2011-11-01T06:30:00Z,30.3288,-87.8293,2.012,23.11,1111122 
DISL,ioos:station:DISL:BSCA:1,2011-11-01T07:00:00Z,30.3288,-87.8293,2.026,23.08,1111122 
DISL,ioos:station:DISL:BSCA:1,2011-11-01T07:30:00Z,30.3288,-87.8293,2.03,23.07,1111122 
DISL,ioos:station:DISL:BSCA:1,2011-11-01T08:00:00Z,30.3288,-87.8293,2.035,23.09,1111122 
DISL,ioos:station:DISL:BSCA:1,2011-11-01T08:30:00Z,30.3288,-87.8293,2.033,23.08,1111122 
DISL,ioos:station:DISL:BSCA:1,2011-11-01T09:00:00Z,30.3288,-87.8293,2.02,23.07,1111122 
DISL,ioos:station:DISL:BSCA:1,2011-11-01T09:30:00Z,30.3288,-87.8293,1.998,23.09,1111122 
DISL,ioos:station:DISL:BSCA:1,2011-11-01T10:00:00Z,30.3288,-87.8293,1.977,23.05,1111122 
DISL,ioos:station:DISL:BSCA:1,2011-11-01T10:30:00Z,30.3288,-87.8293,1.944,23.04,1111122 
DISL,ioos:station:DISL:BSCA:1,2011-11-01T11:00:00Z,30.3288,-87.8293,1.916,23.01,1111122 
DISL,ioos:station:DISL:BSCA:1,2011-11-01T11:30:00Z,30.3288,-87.8293,1.881,23.0,1111122 
DISL,ioos:station:DISL:BSCA:1,2011-11-01T12:00:00Z,30.3288,-87.8293,1.854,22.99,1111122 
DISL,ioos:station:DISL:BSCA:1,2011-11-01T12:30:00Z,30.3288,-87.8293,1.829,22.98,1111122 
DISL,ioos:station:DISL:BSCA:1,2011-11-01T13:00:00Z,30.3288,-87.8293,1.804,22.98,1111122 
DISL,ioos:station:DISL:BSCA:1,2011-11-01T13:30:00Z,30.3288,-87.8293,1.773,22.98,1111122 
DISL,ioos:station:DISL:BSCA:1,2011-11-01T14:00:00Z,30.3288,-87.8293,1.746,22.97,1111122 
DISL,ioos:station:DISL:BSCA:1,2011-11-01T14:30:00Z,30.3288,-87.8293,1.725,22.97,1111122 
DISL,ioos:station:DISL:BSCA:1,2011-11-01T15:00:00Z,30.3288,-87.8293,1.688,22.98,1111122 
DISL,ioos:station:DISL:BSCA:1,2011-11-01T15:30:00Z,30.3288,-87.8293,1.662,23.0,1111122 
DISL,ioos:station:DISL:BSCA:1,2011-11-01T16:00:00Z,30.3288,-87.8293,1.641,23.01,1111122 
DISL,ioos:station:DISL:BSCA:1,2011-11-01T16:30:00Z,30.3288,-87.8293,1.611,23.01,1111122 
DISL,ioos:station:DISL:BSCA:1,2011-11-01T17:00:00Z,30.3288,-87.8293,1.582,22.99,1111122 
DISL,ioos:station:DISL:BSCA:1,2011-11-01T17:30:00Z,30.3288,-87.8293,1.57,22.98,1111122 
DISL,ioos:station:DISL:BSCA:1,2011-11-01T18:00:00Z,30.3288,-87.8293,1.564,22.99,1111122 
DISL,ioos:station:DISL:BSCA:1,2011-11-01T18:30:00Z,30.3288,-87.8293,1.563,23.05,1111122 
DISL,ioos:station:DISL:BSCA:1,2011-11-01T19:00:00Z,30.3288,-87.8293,1.568,23.12,1111122 
DISL,ioos:station:DISL:BSCA:1,2011-11-01T19:30:00Z,30.3288,-87.8293,1.566,23.19,1111122 
DISL,ioos:station:DISL:BSCA:1,2011-11-01T20:00:00Z,30.3288,-87.8293,1.573,23.17,1111122 
DISL,ioos:station:DISL:BSCA:1,2011-11-01T20:30:00Z,30.3288,-87.8293,1.581,23.12,1111122 
DISL,ioos:station:DISL:BSCA:1,2011-11-01T21:00:00Z,30.3288,-87.8293,1.596,23.06,1111122 
DISL,ioos:station:DISL:BSCA:1,2011-11-01T21:30:00Z,30.3288,-87.8293,1.616,23.05,1111122 
DISL,ioos:station:DISL:BSCA:1,2011-11-01T22:00:00Z,30.3288,-87.8293,1.642,23.04,1111122 
DISL,ioos:station:DISL:BSCA:1,2011-11-01T22:30:00Z,30.3288,-87.8293,1.666,23.02,1111122 
DISL,ioos:station:DISL:BSCA:1,2011-11-01T23:00:00Z,30.3288,-87.8293,1.695,22.99,1111122 
DISL,ioos:station:DISL:BSCA:1,2011-11-01T23:30:00Z,30.3288,-87.8293,1.725,22.96,1111122 
DISL,ioos:station:DISL:BSCA:1,2011-11-02T00:00:00Z,30.3288,-87.8293,1.754,22.95,1111122 
DISL,ioos:station:DISL:BSCA:1,2011-11-02T00:30:00Z,30.3288,-87.8293,1.793,22.94,1111122 
DISL,ioos:station:DISL:BSCA:1,2011-11-02T01:00:00Z,30.3288,-87.8293,1.807,22.91,1111122 
DISL,ioos:station:DISL:BSCA:1,2011-11-02T01:30:00Z,30.3288,-87.8293,1.838,22.89,1111122 
DISL,ioos:station:DISL:BSCA:1,2011-11-02T02:00:00Z,30.3288,-87.8293,1.867,22.89,1111122 
DISL,ioos:station:DISL:BSCA:1,2011-11-02T02:30:00Z,30.3288,-87.8293,1.88,22.89,1111122 
DISL,ioos:station:DISL:BSCA:1,2011-11-02T03:00:00Z,30.3288,-87.8293,1.902,22.89,1111122 
DISL,ioos:station:DISL:BSCA:1,2011-11-02T03:30:00Z,30.3288,-87.8293,1.929,22.91,1111122 
DISL,ioos:station:DISL:BSCA:1,2011-11-02T04:00:00Z,30.3288,-87.8293,1.944,22.93,1111122 
DISL,ioos:station:DISL:BSCA:1,2011-11-02T04:30:00Z,30.3288,-87.8293,1.964,22.95,1111122 
DISL,ioos:station:DISL:BSCA:1,2011-11-02T05:00:00Z,30.3288,-87.8293,1.984,22.94,1111122 
DISL,ioos:station:DISL:BSCA:1,2011-11-02T05:30:00Z,30.3288,-87.8293,1.995,22.96,1111122 
DISL,ioos:station:DISL:BSCA:1,2011-11-02T06:00:00Z,30.3288,-87.8293,2.01,22.97,1111122 
DISL,ioos:station:DISL:BSCA:1,2011-11-02T06:30:00Z,30.3288,-87.8293,2.023,22.99,1111122 
DISL,ioos:station:DISL:BSCA:1,2011-11-02T07:00:00Z,30.3288,-87.8293,2.028,23.03,1111122 
DISL,ioos:station:DISL:BSCA:1,2011-11-02T07:30:00Z,30.3288,-87.8293,2.035,23.04,1111122 
DISL,ioos:station:DISL:BSCA:1,2011-11-02T08:00:00Z,30.3288,-87.8293,2.037,23.07,1111122 
DISL,ioos:station:DISL:BSCA:1,2011-11-02T08:30:00Z,30.3288,-87.8293,2.033,23.11,1111122 
DISL,ioos:station:DISL:BSCA:1,2011-11-02T09:00:00Z,30.3288,-87.8293,2.025,23.09,1111122 
DISL,ioos:station:DISL:BSCA:1,2011-11-02T09:30:00Z,30.3288,-87.8293,2.019,23.09,1111122 
DISL,ioos:station:DISL:BSCA:1,2011-11-02T10:00:00Z,30.3288,-87.8293,2.001,23.17,1111122 
DISL,ioos:station:DISL:BSCA:1,2011-11-02T10:30:00Z,30.3288,-87.8293,1.98,23.17,1111122 
DISL,ioos:station:DISL:BSCA:1,2011-11-02T11:00:00Z,30.3288,-87.8293,1.956,23.15,1111122 
DISL,ioos:station:DISL:BSCA:1,2011-11-02T11:30:00Z,30.3288,-87.8293,1.929,23.13,1111122 
DISL,ioos:station:DISL:BSCA:1,2011-11-02T12:00:00Z,30.3288,-87.8293,1.904,23.11,1111122 
DISL,ioos:station:DISL:BSCA:1,2011-11-02T12:30:00Z,30.3288,-87.8293,1.871,23.11,1111122 
DISL,ioos:station:DISL:BSCA:1,2011-11-02T13:00:00Z,30.3288,-87.8293,1.844,23.09,1111122 
DISL,ioos:station:DISL:BSCA:1,2011-11-02T13:30:00Z,30.3288,-87.8293,1.813,23.14,1111122 
DISL,ioos:station:DISL:BSCA:1,2011-11-02T14:00:00Z,30.3288,-87.8293,1.784,23.1,1111122 
DISL,ioos:station:DISL:BSCA:1,2011-11-02T14:30:00Z,30.3288,-87.8293,1.753,23.02,1111122 
DISL,ioos:station:DISL:BSCA:1,2011-11-02T15:00:00Z,30.3288,-87.8293,1.726,23.02,1111122 
DISL,ioos:station:DISL:BSCA:1,2011-11-02T15:30:00Z,30.3288,-87.8293,1.705,23.01,1111122 
DISL,ioos:station:DISL:BSCA:1,2011-11-02T16:00:00Z,30.3288,-87.8293,1.685,22.94,1111122 
DISL,ioos:station:DISL:BSCA:1,2011-11-02T16:30:00Z,30.3288,-87.8293,1.666,22.88,1111122 
DISL,ioos:station:DISL:BSCA:1,2011-11-02T17:00:00Z,30.3288,-87.8293,1.653,22.96,1111122 
DISL,ioos:station:DISL:BSCA:1,2011-11-02T17:30:00Z,30.3288,-87.8293,1.644,23.07,1111122 
DISL,ioos:station:DISL:BSCA:1,2011-11-02T18:00:00Z,30.3288,-87.8293,1.628,23.16,1111122 
DISL,ioos:station:DISL:BSCA:1,2011-11-02T18:30:00Z,30.3288,-87.8293,1.629,23.16,1111122 
DISL,ioos:station:DISL:BSCA:1,2011-11-02T19:00:00Z,30.3288,-87.8293,1.631,23.3,1111122 
DISL,ioos:station:DISL:BSCA:1,2011-11-02T19:30:00Z,30.3288,-87.8293,1.626,23.32,1111122 
DISL,ioos:station:DISL:BSCA:1,2011-11-02T20:00:00Z,30.3288,-87.8293,1.63,23.35,1111122 
DISL,ioos:station:DISL:BSCA:1,2011-11-02T20:30:00Z,30.3288,-87.8293,1.639,23.46,1111122 
DISL,ioos:station:DISL:BSCA:1,2011-11-02T21:00:00Z,30.3288,-87.8293,1.642,23.47,1111122 
DISL,ioos:station:DISL:BSCA:1,2011-11-02T21:30:00Z,30.3288,-87.8293,1.648,23.38,1111122 
DISL,ioos:station:DISL:BSCA:1,2011-11-02T22:00:00Z,30.3288,-87.8293,1.653,23.15,1111122 
DISL,ioos:station:DISL:BSCA:1,2011-11-02T22:30:00Z,30.3288,-87.8293,1.66,23.01,1111122 
DISL,ioos:station:DISL:BSCA:1,2011-11-02T23:00:00Z,30.3288,-87.8293,1.685,23.53,1111122 
DISL,ioos:station:DISL:BSCA:1,2011-11-02T23:30:00Z,30.3288,-87.8293,1.718,23.54,1111122 
DISL,ioos:station:DISL:BSCA:1,2011-11-03T00:00:00Z,30.3288,-87.8293,1.745,23.54,1111122 
DISL,ioos:station:DISL:BSCA:1,2011-11-03T00:30:00Z,30.3288,-87.8293,1.772,23.47,1111122 
DISL,ioos:station:DISL:BSCA:1,2011-11-03T01:00:00Z,30.3288,-87.8293,1.807,23.42,1111122 
DISL,ioos:station:DISL:BSCA:1,2011-11-03T01:30:00Z,30.3288,-87.8293,1.82,23.36,1111122 
DISL,ioos:station:DISL:BSCA:1,2011-11-03T02:00:00Z,30.3288,-87.8293,1.827,23.26,1111122 
DISL,ioos:station:DISL:BSCA:1,2011-11-03T02:30:00Z,30.3288,-87.8293,1.855,23.2,1111122 
DISL,ioos:station:DISL:BSCA:1,2011-11-03T03:00:00Z,30.3288,-87.8293,1.86,23.28,1111122 
DISL,ioos:station:DISL:BSCA:1,2011-11-03T03:30:00Z,30.3288,-87.8293,1.88,23.3,1111122 
DISL,ioos:station:DISL:BSCA:1,2011-11-03T04:00:00Z,30.3288,-87.8293,1.918,23.24,1111122 
DISL,ioos:station:DISL:BSCA:1,2011-11-03T04:30:00Z,30.3288,-87.8293,1.939,23.19,1111122 
DISL,ioos:station:DISL:BSCA:1,2011-11-03T05:00:00Z,30.3288,-87.8293,1.975,23.27,1111122 
DISL,ioos:station:DISL:BSCA:1,2011-11-03T05:30:00Z,30.3288,-87.8293,1.998,23.28,1111122 
DISL,ioos:station:DISL:BSCA:1,2011-11-03T06:00:00Z,30.3288,-87.8293,2.007,23.27,1111122 
DISL,ioos:station:DISL:BSCA:1,2011-11-03T06:30:00Z,30.3288,-87.8293,2.04,23.52,1111122 
DISL,ioos:station:DISL:BSCA:1,2011-11-03T07:00:00Z,30.3288,-87.8293,2.045,23.16,1111122 
DISL,ioos:station:DISL:BSCA:1,2011-11-03T07:30:00Z,30.3288,-87.8293,2.068,23.47,1111122 
DISL,ioos:station:DISL:BSCA:1,2011-11-03T08:00:00Z,30.3288,-87.8293,2.095,23.26,1111122 
DISL,ioos:station:DISL:BSCA:1,2011-11-03T08:30:00Z,30.3288,-87.8293,2.076,23.29,1111122 
DISL,ioos:station:DISL:BSCA:1,2011-11-03T09:00:00Z,30.3288,-87.8293,2.12,23.38,1111122 
DISL,ioos:station:DISL:BSCA:1,2011-11-03T09:30:00Z,30.3288,-87.8293,2.119,23.32,1111122 
DISL,ioos:station:DISL:BSCA:1,2011-11-03T10:00:00Z,30.3288,-87.8293,2.11,23.34,1111122 
DISL,ioos:station:DISL:BSCA:1,2011-11-03T10:30:00Z,30.3288,-87.8293,2.103,23.57,1111122 
DISL,ioos:station:DISL:BSCA:1,2011-11-03T11:00:00Z,30.3288,-87.8293,2.079,23.89,1111122 
DISL,ioos:station:DISL:BSCA:1,2011-11-03T11:30:00Z,30.3288,-87.8293,2.057,24.08,1111122 
DISL,ioos:station:DISL:BSCA:1,2011-11-03T12:00:00Z,30.3288,-87.8293,2.036,24.03,1111122 
DISL,ioos:station:DISL:BSCA:1,2011-11-03T12:30:00Z,30.3288,-87.8293,2.034,24.07,1111122 
DISL,ioos:station:DISL:BSCA:1,2011-11-03T13:00:00Z,30.3288,-87.8293,2.011,23.71,1111122 
DISL,ioos:station:DISL:BSCA:1,2011-11-03T13:30:00Z,30.3288,-87.8293,1.996,23.97,1111122 
DISL,ioos:station:DISL:BSCA:1,2011-11-03T14:00:00Z,30.3288,-87.8293,1.98,24.04,1111122 
DISL,ioos:station:DISL:BSCA:1,2011-11-03T14:30:00Z,30.3288,-87.8293,1.954,23.89,1111122 
DISL,ioos:station:DISL:BSCA:1,2011-11-03T15:00:00Z,30.3288,-87.8293,1.935,24.24,1111122 
DISL,ioos:station:DISL:BSCA:1,2011-11-03T15:30:00Z,30.3288,-87.8293,1.913,24.12,1111122 
DISL,ioos:station:DISL:BSCA:1,2011-11-03T16:00:00Z,30.3288,-87.8293,1.91,24.08,1111122 
DISL,ioos:station:DISL:BSCA:1,2011-11-03T16:30:00Z,30.3288,-87.8293,1.899,24.29,1111122 
DISL,ioos:station:DISL:BSCA:1,2011-11-03T17:00:00Z,30.3288,-87.8293,1.887,24.04,1111122 
DISL,ioos:station:DISL:BSCA:1,2011-11-03T17:30:00Z,30.3288,-87.8293,1.886,24.45,1111122 
DISL,ioos:station:DISL:BSCA:1,2011-11-03T18:00:00Z,30.3288,-87.8293,1.878,23.84,1111122 
DISL,ioos:station:DISL:BSCA:1,2011-11-03T18:30:00Z,30.3288,-87.8293,1.879,23.77,1111122 
DISL,ioos:station:DISL:BSCA:1,2011-11-03T19:00:00Z,30.3288,-87.8293,1.864,23.82,1111122 
DISL,ioos:station:DISL:BSCA:1,2011-11-03T19:30:00Z,30.3288,-87.8293,1.882,23.85,1111122 
DISL,ioos:station:DISL:BSCA:1,2011-11-03T20:00:00Z,30.3288,-87.8293,1.897,23.82,1111122 
DISL,ioos:station:DISL:BSCA:1,2011-11-03T20:30:00Z,30.3288,-87.8293,1.86,23.79,1111122 
DISL,ioos:station:DISL:BSCA:1,2011-11-03T21:00:00Z,30.3288,-87.8293,1.899,23.82,1111122 
DISL,ioos:station:DISL:BSCA:1,2011-11-03T21:30:00Z,30.3288,-87.8293,1.894,23.99,1111122 
DISL,ioos:station:DISL:BSCA:1,2011-11-03T22:00:00Z,30.3288,-87.8293,1.941,24.11,1111122 
DISL,ioos:station:DISL:BSCA:1,2011-11-03T22:30:00Z,30.3288,-87.8293,1.938,24.16,1111122 
DISL,ioos:station:DISL:BSCA:1,2011-11-03T23:00:00Z,30.3288,-87.8293,1.941,24.08,1111122 
DISL,ioos:station:DISL:BSCA:1,2011-11-03T23:30:00Z,30.3288,-87.8293,1.858,23.93,1111122 
DISL,ioos:station:DISL:BSCA:1,2011-11-04T00:00:00Z,30.3288,-87.8293,1.798,23.79,1111122 
DISL,ioos:station:DISL:BSCA:1,2011-11-04T00:30:00Z,30.3288,-87.8293,1.788,23.85,1111122 
DISL,ioos:station:DISL:BSCA:1,2011-11-04T01:00:00Z,30.3288,-87.8293,1.756,23.87,1111122 
DISL,ioos:station:DISL:BSCA:1,2011-11-04T01:30:00Z,30.3288,-87.8293,1.805,23.88,1111122 
DISL,ioos:station:DISL:BSCA:1,2011-11-04T02:00:00Z,30.3288,-87.8293,1.824,23.78,1111122 
DISL,ioos:station:DISL:BSCA:1,2011-11-04T02:30:00Z,30.3288,-87.8293,1.8,23.66,1111122 
DISL,ioos:station:DISL:BSCA:1,2011-11-04T03:00:00Z,30.3288,-87.8293,1.795,23.59,1111122 
DISL,ioos:station:DISL:BSCA:1,2011-11-04T03:30:00Z,30.3288,-87.8293,1.797,23.39,1111122 
DISL,ioos:station:DISL:BSCA:1,2011-11-04T04:00:00Z,30.3288,-87.8293,1.772,23.21,1111122 
DISL,ioos:station:DISL:BSCA:1,2011-11-04T04:30:00Z,30.3288,-87.8293,1.747,22.94,1111122 
DISL,ioos:station:DISL:BSCA:1,2011-11-04T05:00:00Z,30.3288,-87.8293,1.752,22.8,1111122 
DISL,ioos:station:DISL:BSCA:1,2011-11-04T05:30:00Z,30.3288,-87.8293,1.743,22.7,1111122 
DISL,ioos:station:DISL:BSCA:1,2011-11-04T06:00:00Z,30.3288,-87.8293,1.673,22.72,1111122 
DISL,ioos:station:DISL:BSCA:1,2011-11-04T06:30:00Z,30.3288,-87.8293,1.683,22.77,1111122 
DISL,ioos:station:DISL:BSCA:1,2011-11-04T07:00:00Z,30.3288,-87.8293,1.693,22.81,1111122 
DISL,ioos:station:DISL:BSCA:1,2011-11-04T07:30:00Z,30.3288,-87.8293,1.711,22.85,1111122 
DISL,ioos:station:DISL:BSCA:1,2011-11-04T08:00:00Z,30.3288,-87.8293,1.749,22.9,1111122 
DISL,ioos:station:DISL:BSCA:1,2011-11-04T08:30:00Z,30.3288,-87.8293,1.763,22.92,1111122 
DISL,ioos:station:DISL:BSCA:1,2011-11-04T09:00:00Z,30.3288,-87.8293,1.726,22.92,1111122 
DISL,ioos:station:DISL:BSCA:1,2011-11-04T09:30:00Z,30.3288,-87.8293,1.845,22.91,1111122 
DISL,ioos:station:DISL:BSCA:1,2011-11-04T10:00:00Z,30.3288,-87.8293,1.857,22.88,1111122 
DISL,ioos:station:DISL:BSCA:1,2011-11-04T10:30:00Z,30.3288,-87.8293,1.923,22.85,1111122 
DISL,ioos:station:DISL:BSCA:1,2011-11-04T11:00:00Z,30.3288,-87.8293,1.879,22.82,1111122 
DISL,ioos:station:DISL:BSCA:1,2011-11-04T11:30:00Z,30.3288,-87.8293,1.88,22.82,1111122 
DISL,ioos:station:DISL:BSCA:1,2011-11-04T12:00:00Z,30.3288,-87.8293,1.858,22.81,1111122 
DISL,ioos:station:DISL:BSCA:1,2011-11-04T12:30:00Z,30.3288,-87.8293,1.856,22.86,1111122 
DISL,ioos:station:DISL:BSCA:1,2011-11-04T13:00:00Z,30.3288,-87.8293,1.845,22.87,1111122 
DISL,ioos:station:DISL:BSCA:1,2011-11-04T13:30:00Z,30.3288,-87.8293,1.827,22.85,1111122 
DISL,ioos:station:DISL:BSCA:1,2011-11-04T14:00:00Z,30.3288,-87.8293,1.835,22.84,1111122 
DISL,ioos:station:DISL:BSCA:1,2011-11-04T14:30:00Z,30.3288,-87.8293,1.83,22.85,1111122 
DISL,ioos:station:DISL:BSCA:1,2011-11-04T15:00:00Z,30.3288,-87.8293,1.826,22.87,1111122 
DISL,ioos:station:DISL:BSCA:1,2011-11-04T15:30:00Z,30.3288,-87.8293,1.817,22.84,1111122 
DISL,ioos:station:DISL:BSCA:1,2011-11-04T16:00:00Z,30.3288,-87.8293,1.815,22.83,1111122 
DISL,ioos:station:DISL:BSCA:1,2011-11-04T16:30:00Z,30.3288,-87.8293,1.819,22.83,1111122 
DISL,ioos:station:DISL:BSCA:1,2011-11-04T17:00:00Z,30.3288,-87.8293,1.821,22.83,1111122 
DISL,ioos:station:DISL:BSCA:1,2011-11-04T17:30:00Z,30.3288,-87.8293,1.826,22.83,1111122 
DISL,ioos:station:DISL:BSCA:1,2011-11-04T18:00:00Z,30.3288,-87.8293,1.787,22.83,1111122 
DISL,ioos:station:DISL:BSCA:1,2011-11-04T18:30:00Z,30.3288,-87.8293,1.772,22.84,1111122 
DISL,ioos:station:DISL:BSCA:1,2011-11-04T19:00:00Z,30.3288,-87.8293,1.723,22.82,1111122 
DISL,ioos:station:DISL:BSCA:1,2011-11-04T19:30:00Z,30.3288,-87.8293,1.722,22.82,1111122 
DISL,ioos:station:DISL:BSCA:1,2011-11-04T20:00:00Z,30.3288,-87.8293,1.705,22.81,1111122 
DISL,ioos:station:DISL:BSCA:1,2011-11-04T20:30:00Z,30.3288,-87.8293,1.697,22.81,1111122 
DISL,ioos:station:DISL:BSCA:1,2011-11-04T21:00:00Z,30.3288,-87.8293,1.689,22.8,1111122 
DISL,ioos:station:DISL:BSCA:1,2011-11-04T21:30:00Z,30.3288,-87.8293,1.711,22.84,1111122 
DISL,ioos:station:DISL:BSCA:1,2011-11-04T22:00:00Z,30.3288,-87.8293,1.723,22.85,1111122 
DISL,ioos:station:DISL:BSCA:1,2011-11-04T22:30:00Z,30.3288,-87.8293,1.741,22.96,1111122 
DISL,ioos:station:DISL:BSCA:1,2011-11-04T23:00:00Z,30.3288,-87.8293,1.764,23.01,1111122 
DISL,ioos:station:DISL:BSCA:1,2011-11-04T23:30:00Z,30.3288,-87.8293,1.758,23.07,1111122 
DISL,ioos:station:DISL:BSCA:1,2011-11-05T00:00:00Z,30.3288,-87.8293,1.746,23.11,1111122 
DISL,ioos:station:DISL:BSCA:1,2011-11-05T00:30:00Z,30.3288,-87.8293,1.74,23.12,1111122 
DISL,ioos:station:DISL:BSCA:1,2011-11-05T01:00:00Z,30.3288,-87.8293,1.739,23.14,1111122 
DISL,ioos:station:DISL:BSCA:1,2011-11-05T01:30:00Z,30.3288,-87.8293,1.744,23.18,1111122 
DISL,ioos:station:DISL:BSCA:1,2011-11-05T02:00:00Z,30.3288,-87.8293,1.76,23.24,1111122 
DISL,ioos:station:DISL:BSCA:1,2011-11-05T02:30:00Z,30.3288,-87.8293,1.766,23.25,1111122 
DISL,ioos:station:DISL:BSCA:1,2011-11-05T03:00:00Z,30.3288,-87.8293,1.799,23.25,1111122 
DISL,ioos:station:DISL:BSCA:1,2011-11-05T03:30:00Z,30.3288,-87.8293,1.803,23.25,1111122 
DISL,ioos:station:DISL:BSCA:1,2011-11-05T04:00:00Z,30.3288,-87.8293,1.808,23.29,1111122 
DISL,ioos:station:DISL:BSCA:1,2011-11-05T04:30:00Z,30.3288,-87.8293,1.805,23.27,1111122 
DISL,ioos:station:DISL:BSCA:1,2011-11-05T05:00:00Z,30.3288,-87.8293,1.792,23.26,1111122 
DISL,ioos:station:DISL:BSCA:1,2011-11-05T05:30:00Z,30.3288,-87.8293,1.775,23.18,1111122 
DISL,ioos:station:DISL:BSCA:1,2011-11-05T06:00:00Z,30.3288,-87.8293,1.762,23.14,1111122 
DISL,ioos:station:DISL:BSCA:1,2011-11-05T06:30:00Z,30.3288,-87.8293,1.745,23.09,1111122 
DISL,ioos:station:DISL:BSCA:1,2011-11-05T07:00:00Z,30.3288,-87.8293,1.743,23.03,1111122 
DISL,ioos:station:DISL:BSCA:1,2011-11-05T07:30:00Z,30.3288,-87.8293,1.724,22.98,1111122 
DISL,ioos:station:DISL:BSCA:1,2011-11-05T08:00:00Z,30.3288,-87.8293,1.708,22.95,1111122 
DISL,ioos:station:DISL:BSCA:1,2011-11-05T08:30:00Z,30.3288,-87.8293,1.702,22.93,1111122 
DISL,ioos:station:DISL:BSCA:1,2011-11-05T09:00:00Z,30.3288,-87.8293,1.694,22.93,1111122 
DISL,ioos:station:DISL:BSCA:1,2011-11-05T09:30:00Z,30.3288,-87.8293,1.68,22.96,1111122 
DISL,ioos:station:DISL:BSCA:1,2011-11-05T10:00:00Z,30.3288,-87.8293,1.656,22.99,1111122 
DISL,ioos:station:DISL:BSCA:1,2011-11-05T10:30:00Z,30.3288,-87.8293,1.655,23.01,1111122 
DISL,ioos:station:DISL:BSCA:1,2011-11-05T11:00:00Z,30.3288,-87.8293,1.658,23.03,1111122 
DISL,ioos:station:DISL:BSCA:1,2011-11-05T11:30:00Z,30.3288,-87.8293,1.664,23.02,1111122 
DISL,ioos:station:DISL:BSCA:1,2011-11-05T12:00:00Z,30.3288,-87.8293,1.689,23.0,1111122 
DISL,ioos:station:DISL:BSCA:1,2011-11-05T12:30:00Z,30.3288,-87.8293,1.694,22.98,1111122 
DISL,ioos:station:DISL:BSCA:1,2011-11-05T13:00:00Z,30.3288,-87.8293,1.692,22.97,1111122 
DISL,ioos:station:DISL:BSCA:1,2011-11-05T13:30:00Z,30.3288,-87.8293,1.695,22.99,1111122 
DISL,ioos:station:DISL:BSCA:1,2011-11-05T14:00:00Z,30.3288,-87.8293,1.688,22.98,1111122 
DISL,ioos:station:DISL:BSCA:1,2011-11-05T14:30:00Z,30.3288,-87.8293,1.696,22.98,1111122 
DISL,ioos:station:DISL:BSCA:1,2011-11-05T15:00:00Z,30.3288,-87.8293,1.712,22.93,1111122 
DISL,ioos:station:DISL:BSCA:1,2011-11-05T15:30:00Z,30.3288,-87.8293,1.715,22.98,1111122 
DISL,ioos:station:DISL:BSCA:1,2011-11-05T16:00:00Z,30.3288,-87.8293,1.726,22.99,1111122 
DISL,ioos:station:DISL:BSCA:1,2011-11-05T16:30:00Z,30.3288,-87.8293,1.714,22.99,1111122 
DISL,ioos:station:DISL:BSCA:1,2011-11-05T17:00:00Z,30.3288,-87.8293,1.726,23.01,1111122 
DISL,ioos:station:DISL:BSCA:1,2011-11-05T17:30:00Z,30.3288,-87.8293,1.749,23.06,1111122 
DISL,ioos:station:DISL:BSCA:1,2011-11-05T18:00:00Z,30.3288,-87.8293,1.776,23.11,1111122 
DISL,ioos:station:DISL:BSCA:1,2011-11-05T18:30:00Z,30.3288,-87.8293,1.793,23.18,1111122 
DISL,ioos:station:DISL:BSCA:1,2011-11-05T19:00:00Z,30.3288,-87.8293,1.804,23.21,1111122 
DISL,ioos:station:DISL:BSCA:1,2011-11-05T19:30:00Z,30.3288,-87.8293,1.812,23.2,1111122 
DISL,ioos:station:DISL:BSCA:1,2011-11-05T20:00:00Z,30.3288,-87.8293,1.807,23.21,1111122 
DISL,ioos:station:DISL:BSCA:1,2011-11-05T20:30:00Z,30.3288,-87.8293,1.81,23.21,1111122 
DISL,ioos:station:DISL:BSCA:1,2011-11-05T21:00:00Z,30.3288,-87.8293,1.82,23.22,1111122 
DISL,ioos:station:DISL:BSCA:1,2011-11-05T21:30:00Z,30.3288,-87.8293,1.83,23.25,1111122 
DISL,ioos:station:DISL:BSCA:1,2011-11-05T22:00:00Z,30.3288,-87.8293,1.841,23.29,1111122 
DISL,ioos:station:DISL:BSCA:1,2011-11-05T22:30:00Z,30.3288,-87.8293,1.864,23.34,1111122 
DISL,ioos:station:DISL:BSCA:1,2011-11-05T23:00:00Z,30.3288,-87.8293,1.879,23.29,1111122 
DISL,ioos:station:DISL:BSCA:1,2011-11-05T23:30:00Z,30.3288,-87.8293,1.892,23.25,1111122 
DISL,ioos:station:DISL:BSCA:1,2011-11-06T00:00:00Z,30.3288,-87.8293,1.913,23.43,1111122 
DISL,ioos:station:DISL:BSCA:1,2011-11-06T00:30:00Z,30.3288,-87.8293,1.923,23.43,1111122 
DISL,ioos:station:DISL:BSCA:1,2011-11-06T01:00:00Z,30.3288,-87.8293,1.941,23.46,1111122 
DISL,ioos:station:DISL:BSCA:1,2011-11-06T01:30:00Z,30.3288,-87.8293,1.94,23.47,1111122 
DISL,ioos:station:DISL:BSCA:1,2011-11-06T02:00:00Z,30.3288,-87.8293,1.963,23.49,1111122 
DISL,ioos:station:DISL:BSCA:1,2011-11-06T02:30:00Z,30.3288,-87.8293,1.946,23.53,1111122 
DISL,ioos:station:DISL:BSCA:1,2011-11-06T03:00:00Z,30.3288,-87.8293,1.973,23.55,1111122 
DISL,ioos:station:DISL:BSCA:1,2011-11-06T03:30:00Z,30.3288,-87.8293,1.947,23.55,1111122 
DISL,ioos:station:DISL:BSCA:1,2011-11-06T04:00:00Z,30.3288,-87.8293,1.927,23.66,1111122 
DISL,ioos:station:DISL:BSCA:1,2011-11-06T04:30:00Z,30.3288,-87.8293,1.901,23.39,1111122 
DISL,ioos:station:DISL:BSCA:1,2011-11-06T05:00:00Z,30.3288,-87.8293,1.869,22.74,1111122 
DISL,ioos:station:DISL:BSCA:1,2011-11-06T05:30:00Z,30.3288,-87.8293,1.822,22.84,1111122 
DISL,ioos:station:DISL:BSCA:1,2011-11-06T06:00:00Z,30.3288,-87.8293,1.796,22.91,1111122 
DISL,ioos:station:DISL:BSCA:1,2011-11-06T16:00:00Z,30.3288,-87.8293,1.638,24.2,1111122 
DISL,ioos:station:DISL:BSCA:1,2011-11-06T16:30:00Z,30.3288,-87.8293,1.654,24.16,1111122 
DISL,ioos:station:DISL:BSCA:1,2011-11-06T17:00:00Z,30.3288,-87.8293,1.644,24.16,1111122 
DISL,ioos:station:DISL:BSCA:1,2011-11-06T17:30:00Z,30.3288,-87.8293,1.657,24.08,1111122 
DISL,ioos:station:DISL:BSCA:1,2011-11-06T18:00:00Z,30.3288,-87.8293,1.72,24.23,1111122 
DISL,ioos:station:DISL:BSCA:1,2011-11-06T18:30:00Z,30.3288,-87.8293,1.785,24.28,1111122 
DISL,ioos:station:DISL:BSCA:1,2011-11-06T19:00:00Z,30.3288,-87.8293,1.826,24.25,1111122 
DISL,ioos:station:DISL:BSCA:1,2011-11-06T19:30:00Z,30.3288,-87.8293,1.852,24.16,1111122 
DISL,ioos:station:DISL:BSCA:1,2011-11-06T20:00:00Z,30.3288,-87.8293,1.851,24.09,1111122 
DISL,ioos:station:DISL:BSCA:1,2011-11-06T20:30:00Z,30.3288,-87.8293,1.86,24.19,1111122 
DISL,ioos:station:DISL:BSCA:1,2011-11-06T21:00:00Z,30.3288,-87.8293,1.884,24.25,1111122 
DISL,ioos:station:DISL:BSCA:1,2011-11-06T21:30:00Z,30.3288,-87.8293,1.915,24.39,1111122 
DISL,ioos:station:DISL:BSCA:1,2011-11-06T22:00:00Z,30.3288,-87.8293,1.956,24.45,1111122 
DISL,ioos:station:DISL:BSCA:1,2011-11-06T22:30:00Z,30.3288,-87.8293,2.004,24.58,1111122 
DISL,ioos:station:DISL:BSCA:1,2011-11-06T23:00:00Z,30.3288,-87.8293,2.039,24.65,1111122 
DISL,ioos:station:DISL:BSCA:1,2011-11-06T23:30:00Z,30.3288,-87.8293,2.061,24.67,1111122 